DELTA 1 DEB

Satellite information

Favourite Embed

Satellite Type and Status

DEBRISIN ORBIT

Key statistics

Satellite DELTA 1 DEB at a glance.

Uptime

18398

Days in orbit

Revolutions

≈ 13.3

Per day

Orbit

SSO

Sun Synchronous Orbit

Inclination

99.4

Latest

Satellite identification and parameters

Extended collection of information and parameters for DELTA 1 DEB.

Object identification

Identified? True

Debris? True

Object name: DELTA 1 DEB

International designator: 1975-052BR

Object number (NORAD): 21347

Object ID (CCSDS): 21347

Country: UNITED STATES OF AMERICA (US)

Current information (Y/N): Y

RCS size: SMALL

Orbital parameters

Period: 108.272 minutes

Inclination: 99.401 deg

SMA: 7524.944 km

Apoapsis: 1442.587 km

Periapsis: 851.031 km

RAAN: 88.6225 deg

Eccentricy: 0.03930636

Argument of periapsis: 153.1772 deg

Mean anomaly: 333.2943 deg

Mean motion: 13.29988362 rev/day

Mean motion (dot): 0.00007694 rev/day2

B* drag term: 0.010798922 1/REarth

Two-line elements (TLE)

Creation date: Oct. 24, 2025, 2:48 a.m.

Reference frame: TEME

Reference center: EARTH

Epoch: Oct. 23, 2025, 10:32 p.m. UTC

TLE line 0: 0 DELTA 1 DEB

TLE line 1: 1 21347U 75052BR 25296.93925644 .00007694 00000-0 10799-1 0 9995

TLE line 2: 2 21347 99.4010 88.6225 0393064 153.1772 333.2943 13.29988362633149

Live tracking on map

Real-time ground track for satellite DELTA 1 DEB.

In-orbit conjunctions

A list of the most updated potential collisions computed for object DELTA 1 DEB.

Target Orbit TCA Probability of collision Miss distance Type
CZ-4C R/B SSO 2025-06-06 11:00:43 0.0001361335 821.0 (m) ROCKET BODY

Associated space launch

Experimental meteorological satellite

DELTA 1 DEB was lifted into orbit during the mission ‘Delta 2910 | Nimbus 6’, on board a Delta 2910 space rocket.

The launch took place on June 12, 1975, 8:12 a.m. from Space Launch Complex 2W.

For more information about the launch, click the button.

Launch to space Delta 2910 | Nimbus 6
Delta 2910 | Nimbus 6

Agency: N/A

Status: Launch Successful

Launch date: June 12, 1975, 8:12 a.m. UTC

Rocket: Delta 2910

Launch pad: Space Launch Complex 2W

Location: Vandenberg SFB, CA, USA

...

Latest news about this satellite

There are no fresh news available about this satellite. Check back as we update our databases every day.


Newsletter sign-up

Weekly statistics, charts and insights to help you stay on top of the space industry.